Overview Statistics Trail Chart Weather Telemetry Raw packets
 

This is the latest recevied weather packets stored in our database for station/object KC1BRV. If no packets are shown the sender has not sent any weather packets the latest 10 day(s).

<< 47 48 49 50 51 52 53 >>
Time Temp. Humidity Pressure Rain* Wind** Luminosity Snow
1788292240 16.11° C 98% 1018.7 hPa 0 mm - 46 W/m² -
1788291936 16.11° C 98% 1018.5 hPa 0 mm - 57 W/m² -
1788291631 15.56° C 98% 1018.4 hPa 0 mm - 56 W/m² -
1788291331 15.56° C 98% 1018.5 hPa 0 mm - 66 W/m² -
1788291026 16.11° C 98% 1018.4 hPa 3.05 mm - 77 W/m² -
1788290721 16.11° C 98% 1018.4 hPa 6.1 mm - 74 W/m² -
1788290416 16.11° C 98% 1018.6 hPa 4.32 mm - 78 W/m² -
1788290112 16.11° C 98% 1018.5 hPa 3.05 mm - 63 W/m² -
1788289808 16.11° C 98% 1018.5 hPa 4.83 mm - 93 W/m² -
1788289506 16.11° C 98% 1018.5 hPa 8.89 mm - 60 W/m² -
1788289201 16.11° C 98% 1018.7 hPa 10.16 mm - 57 W/m² -
1788288895 16.11° C 98% 1018.5 hPa 7.87 mm - 56 W/m² -
1788288594 16.11° C 98% 1018.1 hPa 7.87 mm - 43 W/m² -
1788288290 16.11° C 98% 1018 hPa 8.89 mm - 68 W/m² -
1788287985 16.11° C 98% 1018.1 hPa 8.89 mm - 60 W/m² -
1788287685 16.11° C 97% 1018.1 hPa 1.27 mm - 56 W/m² -
1788287381 16.11° C 97% 1018.3 hPa 0 mm - 41 W/m² -
1788287077 16.11° C 97% 1018.3 hPa 0 mm - 36 W/m² -
1788286777 16.67° C 97% 1018.1 hPa 0 mm - 60 W/m² -
1788286472 16.67° C 97% 1018.3 hPa 1.78 mm - 45 W/m² -
1788286171 16.67° C 97% 1018.4 hPa 4.83 mm - 46 W/m² -
1788285870 16.67° C 97% 1018.3 hPa 6.1 mm - 66 W/m² -
1788285568 16.11° C 97% 1017.4 hPa 6.1 mm - 163 W/m² -
1788285263 16.11° C 97% 1017.2 hPa 7.87 mm - 55 W/m² -
1788284958 16.11° C 96% 1018.3 hPa 4.32 mm - 29 W/m² -

* Rain latest hour (hover to see other rain measurements)
** Current wind speed in m/s (hover to see current wind gust speed)